GALAXY 19 (G-19)        
1 33376U 08045A   19261.88452096 -.00000142  00000-0  00000-0 0  9998
2 33376   0.0183 164.2702 0003278  20.1459  34.5207  1.00271128 40242
BLOCK DM-SL R/B         
1 33377U 08045B   19261.97007175 -.00000051  00000-0  00000+0 0  9991
2 33377   1.4277 350.0442 6430330 292.1372  13.9996  2.12855597 85430